This is the latest recevied weather packets stored in our database for station/object W8AN. If no packets are shown the sender has not sent any weather packets the latest 1 day(s).
| Time | Temp. | Humidity | Pressure | Rain* | Wind** | Luminosity | Snow |
|---|---|---|---|---|---|---|---|
| 1778054712 | 6.67° C | 84% | 4263.7 hPa | 1.78 mm | - | 0 W/m² | - |
| 1778052895 | 6.67° C | 84% | 4264 hPa | 3.05 mm | - | 0 W/m² | - |
| 1778052592 | 6.67° C | 84% | 4263.6 hPa | 3.05 mm | - | 0 W/m² | - |
| 1778052289 | 7.22° C | 84% | 4263.7 hPa | 3.05 mm | - | 0 W/m² | - |
| 1778051685 | 7.22° C | 84% | 4264.3 hPa | 1.78 mm | - | 0 W/m² | - |
| 1778051079 | 7.22° C | 84% | 4264.4 hPa | 1.27 mm | - | 0 W/m² | - |
| 1778050776 | 7.22° C | 84% | 4264.3 hPa | 1.27 mm | - | 0 W/m² | - |
| 1778049866 | 7.22° C | 84% | 4264 hPa | 1.78 mm | - | 0 W/m² | - |
| 1778049563 | 7.22° C | 84% | 4264 hPa | 0 mm | - | 0 W/m² | - |
| 1778048958 | 7.22° C | 84% | 4263.7 hPa | 1.27 mm | - | 0 W/m² | - |
| 1778048352 | 7.22° C | 84% | 4264 hPa | 1.78 mm | - | 0 W/m² | - |
| 1778048049 | 7.78° C | 84% | 4264.6 hPa | 1.78 mm | - | 0 W/m² | - |
| 1778047747 | 7.78° C | 84% | 4264.3 hPa | 0 mm | - | 0 W/m² | - |
| 1778046838 | 7.78° C | 83% | 4264 hPa | 0 mm | - | 0 W/m² | - |
| 1778046535 | 7.78° C | 83% | 4264 hPa | 1.27 mm | - | 0 W/m² | - |
| 1778046232 | 7.78° C | 83% | 4263.6 hPa | 1.27 mm | - | 0 W/m² | - |
| 1778045928 | 7.22° C | 83% | 4264.1 hPa | 0 mm | - | 0 W/m² | - |
| 1778045023 | 7.78° C | 84% | 4264.2 hPa | 1.78 mm | - | 0 W/m² | - |
| 1778044114 | 7.78° C | 85% | 4264.4 hPa | 0 mm | - | 0 W/m² | - |
| 1778043811 | 7.78° C | 85% | 4264.3 hPa | 1.27 mm | - | 0 W/m² | - |
| 1778043508 | 7.78° C | 85% | 4264.2 hPa | 1.27 mm | - | 0 W/m² | - |
| 1778043205 | 7.78° C | 85% | 4264.3 hPa | 0 mm | - | 0 W/m² | - |
| 1778042600 | 7.78° C | 85% | 4264 hPa | 1.78 mm | - | 0 W/m² | - |
| 1778042296 | 7.78° C | 85% | 4264 hPa | 1.78 mm | - | 0 W/m² | - |
| 1778041994 | 8.89° C | 85% | 4264.1 hPa | 1.78 mm | - | 0 W/m² | - |
* Rain latest hour (hover to see other rain measurements)
** Current wind speed in m/s (hover to see current wind gust speed)